Time,TemperatureF,DewpointF,PressureIn,WindDirection,WindDirectionDegrees,WindSpeedMPH,WindSpeedGustMPH,Humidity,HourlyPrecipIn,Conditions,Clouds,dailyrainin,SoftwareType,DateUTC
2013-08-28 00:00:00,74.3,59.5,28.41,ESE,116,2.7,2.7,60,0.00,,---,0.00,VWS V14.01,2013-08-28 05:00:00,
2013-08-28 00:05:00,74.3,59.5,28.41,South,170,3.1,3.6,60,0.00,,---,0.00,VWS V14.01,2013-08-28 05:05:00,
2013-08-28 00:11:00,74.3,60.0,28.41,SSE,148,0.0,3.6,61,0.00,,---,0.00,VWS V14.01,2013-08-28 05:11:00,
2013-08-28 00:16:00,74.1,59.8,28.41,SSE,148,0.0,3.6,61,0.00,,---,0.00,VWS V14.01,2013-08-28 05:16:00,
2013-08-28 00:21:00,73.9,59.7,28.41,SSE,148,0.0,3.6,61,0.00,,---,0.00,VWS V14.01,2013-08-28 05:21:00,
2013-08-28 00:26:00,73.9,59.7,28.44,SSE,150,2.2,4.0,61,0.00,,---,0.00,VWS V14.01,2013-08-28 05:26:00,
2013-08-28 00:31:00,73.8,59.9,28.44,SSE,150,0.0,4.0,62,0.00,,---,0.00,VWS V14.01,2013-08-28 05:31:00,
2013-08-28 00:36:00,73.8,59.9,28.44,SSE,149,2.7,4.0,62,0.00,,---,0.00,VWS V14.01,2013-08-28 05:36:00,
2013-08-28 00:41:00,73.6,59.8,28.44,SSE,149,0.0,4.0,62,0.00,,---,0.00,VWS V14.01,2013-08-28 05:41:00,
2013-08-28 00:46:00,73.4,60.0,28.44,South,184,3.1,4.0,63,0.00,,---,0.00,VWS V14.01,2013-08-28 05:46:00,
2013-08-28 00:51:00,73.4,60.0,28.44,SSE,158,0.0,4.0,63,0.00,,---,0.00,VWS V14.01,2013-08-28 05:51:00,
2013-08-28 00:56:00,73.2,60.3,28.44,SSE,158,0.0,4.0,64,0.00,,---,0.00,VWS V14.01,2013-08-28 05:56:00,
2013-08-28 01:01:00,73.2,60.3,28.44,SSE,158,0.0,0.0,64,0.00,,---,0.00,VWS V14.01,2013-08-28 06:01:00,
2013-08-28 01:07:00,73.0,60.2,28.44,SSE,155,0.0,2.7,64,0.00,,---,0.00,VWS V14.01,2013-08-28 06:07:00,
2013-08-28 01:12:00,72.9,60.0,28.44,SSE,155,0.0,2.7,64,0.00,,---,0.00,VWS V14.01,2013-08-28 06:12:00,
2013-08-28 01:17:00,72.9,60.4,28.44,South,174,0.0,2.7,65,0.00,,---,0.00,VWS V14.01,2013-08-28 06:17:00,
2013-08-28 01:22:00,72.7,60.2,28.44,South,174,0.0,2.7,65,0.00,,---,0.00,VWS V14.01,2013-08-28 06:22:00,
2013-08-28 01:27:00,72.5,60.1,28.44,SSE,157,2.7,3.1,65,0.00,,---,0.00,VWS V14.01,2013-08-28 06:27:00,
2013-08-28 01:32:00,72.3,60.3,28.44,SE,130,3.1,3.6,66,0.00,,---,0.00,VWS V14.01,2013-08-28 06:32:00,
2013-08-28 01:37:00,72.3,60.3,28.44,SE,130,0.0,3.6,66,0.00,,---,0.00,VWS V14.01,2013-08-28 06:37:00,
2013-08-28 01:42:00,72.1,60.6,28.44,SSE,151,2.7,3.6,67,0.00,,---,0.00,VWS V14.01,2013-08-28 06:42:00,
2013-08-28 01:47:00,72.1,60.6,28.44,South,179,2.7,3.6,67,0.00,,---,0.00,VWS V14.01,2013-08-28 06:47:00,
2013-08-28 01:52:00,72.0,60.8,28.44,South,179,0.0,3.6,68,0.00,,---,0.00,VWS V14.01,2013-08-28 06:52:00,
2013-08-28 01:58:00,72.0,60.8,28.44,South,169,0.0,3.6,68,0.00,,---,0.00,VWS V14.01,2013-08-28 06:58:00,
2013-08-28 02:03:00,72.0,60.8,28.44,SE,146,0.0,3.1,68,0.00,,---,0.00,VWS V14.01,2013-08-28 07:03:00,
2013-08-28 02:08:00,71.8,61.1,28.44,SSE,168,2.7,3.1,69,0.00,,---,0.00,VWS V14.01,2013-08-28 07:08:00,
2013-08-28 02:13:00,71.6,60.9,28.44,South,187,0.0,3.1,69,0.00,,---,0.04,VWS V14.01,2013-08-28 07:13:00,
2013-08-28 02:18:00,71.6,60.9,28.44,South,187,0.0,3.1,69,0.00,,---,0.00,VWS V14.01,2013-08-28 07:18:00,
2013-08-28 02:23:00,71.4,61.1,28.44,South,187,0.0,3.1,70,0.00,,---,0.00,VWS V14.01,2013-08-28 07:23:00,
2013-08-28 02:28:00,71.4,61.1,28.44,SSE,163,0.0,4.0,70,0.00,,---,0.00,VWS V14.01,2013-08-28 07:28:00,
2013-08-28 02:33:00,71.2,61.0,28.44,SSE,163,0.0,4.0,70,0.00,,---,0.00,VWS V14.01,2013-08-28 07:33:00,
2013-08-28 02:38:00,71.2,61.4,28.44,SSE,163,0.0,4.0,71,0.00,,---,0.00,VWS V14.01,2013-08-28 07:38:00,
2013-08-28 02:43:00,71.1,61.2,28.44,SSE,163,0.0,4.0,71,0.00,,---,0.00,VWS V14.01,2013-08-28 07:43:00,
2013-08-28 02:49:00,71.1,61.6,28.44,SSE,163,0.0,4.0,72,0.00,,---,0.00,VWS V14.01,2013-08-28 07:49:00,
2013-08-28 02:54:00,70.9,61.4,28.44,SSE,162,0.0,4.0,72,0.00,,---,0.00,VWS V14.01,2013-08-28 07:54:00,
2013-08-28 02:59:00,70.7,61.2,28.44,SSE,163,0.0,4.0,72,0.00,,---,0.00,VWS V14.01,2013-08-28 07:59:00,
2013-08-28 03:04:00,70.7,61.6,28.44,SSE,163,0.0,0.0,73,0.00,,---,0.00,VWS V14.01,2013-08-28 08:04:00,
2013-08-28 03:09:00,70.5,61.5,28.44,SSE,163,0.0,0.0,73,0.00,,---,0.00,VWS V14.01,2013-08-28 08:09:00,
2013-08-28 03:14:00,70.5,61.8,28.44,SSE,163,0.0,0.0,74,0.00,,---,0.00,VWS V14.01,2013-08-28 08:14:00,
2013-08-28 03:19:00,70.3,61.7,28.44,SSE,162,0.0,0.0,74,0.00,,---,0.00,VWS V14.01,2013-08-28 08:19:00,
2013-08-28 03:24:00,70.2,61.9,28.44,SSE,163,0.0,0.0,75,0.00,,---,0.00,VWS V14.01,2013-08-28 08:24:00,
2013-08-28 03:29:00,70.2,61.9,28.44,SSE,162,0.0,0.0,75,0.00,,---,0.00,VWS V14.01,2013-08-28 08:29:00,
2013-08-28 03:35:00,70.0,62.1,28.44,SSE,163,0.0,0.0,76,0.00,,---,0.00,VWS V14.01,2013-08-28 08:35:00,
2013-08-28 03:40:00,70.0,62.1,28.44,SSE,163,0.0,0.0,76,0.00,,---,0.00,VWS V14.01,2013-08-28 08:40:00,
2013-08-28 03:45:00,70.0,62.5,28.44,SSE,162,0.0,0.0,77,0.00,,---,0.00,VWS V14.01,2013-08-28 08:45:00,
2013-08-28 03:50:00,70.0,62.5,28.44,SSE,163,2.7,3.1,77,0.00,,---,0.00,VWS V14.01,2013-08-28 08:50:00,
2013-08-28 03:55:00,69.8,62.3,28.44,SSE,163,0.0,3.1,77,0.00,,---,0.00,VWS V14.01,2013-08-28 08:55:00,
2013-08-28 04:00:00,69.8,62.6,28.44,SSE,163,2.7,2.7,78,0.00,,---,0.00,VWS V14.01,2013-08-28 09:00:00,
2013-08-28 04:05:00,69.6,62.5,28.44,SSE,163,0.0,2.7,78,0.00,,---,0.00,VWS V14.01,2013-08-28 09:05:00,
2013-08-28 04:10:00,69.6,62.8,28.44,SSE,163,0.0,2.7,79,0.00,,---,0.00,VWS V14.01,2013-08-28 09:10:00,
2013-08-28 04:15:00,69.4,62.7,28.44,SSE,163,0.0,2.7,79,0.00,,---,0.00,VWS V14.01,2013-08-28 09:15:00,
2013-08-28 04:20:00,69.3,62.5,28.44,SSE,162,0.0,2.7,79,0.00,,---,0.00,VWS V14.01,2013-08-28 09:20:00,
2013-08-28 04:25:00,69.3,62.5,28.44,SSE,163,0.0,2.7,79,0.00,,---,0.00,VWS V14.01,2013-08-28 09:25:00,
2013-08-28 04:31:00,69.1,62.3,28.44,SSE,162,0.0,2.7,79,0.00,,---,0.00,VWS V14.01,2013-08-28 09:31:00,
2013-08-28 04:35:00,68.9,62.5,28.44,SSE,162,0.0,2.7,80,0.00,,---,0.00,VWS V14.01,2013-08-28 09:35:00,
2013-08-28 04:40:00,68.9,62.5,28.44,SSE,163,0.0,2.7,80,0.00,,---,0.00,VWS V14.01,2013-08-28 09:40:00,
2013-08-28 04:45:00,68.7,62.3,28.44,SSE,163,0.0,2.7,80,0.00,,---,0.00,VWS V14.01,2013-08-28 09:45:00,
2013-08-28 04:50:00,68.7,62.3,28.44,SSE,163,0.0,2.7,80,0.00,,---,0.00,VWS V14.01,2013-08-28 09:50:00,
2013-08-28 04:55:00,68.7,62.7,28.44,SSE,163,0.0,2.7,81,0.00,,---,0.00,VWS V14.01,2013-08-28 09:55:00,
2013-08-28 05:00:00,68.7,62.7,28.44,SSE,163,0.0,0.0,81,0.00,,---,0.00,VWS V14.01,2013-08-28 10:00:00,
2013-08-28 05:05:00,68.7,62.7,28.44,SSE,163,0.0,0.0,81,0.00,,---,0.00,VWS V14.01,2013-08-28 10:05:00,
2013-08-28 05:10:00,68.7,63.0,28.44,SSE,163,0.0,0.0,82,0.00,,---,0.00,VWS V14.01,2013-08-28 10:10:00,
2013-08-28 05:15:00,68.7,63.0,28.44,SSE,163,0.0,0.0,82,0.00,,---,0.00,VWS V14.01,2013-08-28 10:15:00,
2013-08-28 05:21:00,68.5,62.8,28.44,SSE,163,0.0,0.0,82,0.00,,---,0.00,VWS V14.01,2013-08-28 10:21:00,
2013-08-28 05:26:00,68.5,62.8,28.44,SSE,163,0.0,0.0,82,0.00,,---,0.00,VWS V14.01,2013-08-28 10:26:00,
2013-08-28 05:31:00,68.4,62.7,28.44,SSE,163,0.0,0.0,82,0.00,,---,0.00,VWS V14.01,2013-08-28 10:31:00,
2013-08-28 05:36:00,68.4,63.0,28.44,SSE,163,0.0,0.0,83,0.00,,---,0.00,VWS V14.01,2013-08-28 10:36:00,
2013-08-28 05:41:00,68.2,62.8,28.44,SSE,163,0.0,0.0,83,0.00,,---,0.00,VWS V14.01,2013-08-28 10:41:00,
2013-08-28 05:46:00,68.2,62.8,28.44,SSE,163,0.0,0.0,83,0.00,,---,0.00,VWS V14.01,2013-08-28 10:46:00,
2013-08-28 05:51:00,68.0,63.0,28.44,SSE,163,0.0,0.0,84,0.00,,---,0.00,VWS V14.01,2013-08-28 10:51:00,
2013-08-28 05:56:00,68.0,63.0,28.44,SSE,163,0.0,0.0,84,0.00,,---,0.00,VWS V14.01,2013-08-28 10:56:00,
2013-08-28 06:01:00,68.0,63.0,28.44,SSE,163,0.0,0.0,84,0.00,,---,0.00,VWS V14.01,2013-08-28 11:01:00,
2013-08-28 06:06:00,68.0,63.0,28.44,SSE,163,0.0,0.0,84,0.00,,---,0.00,VWS V14.01,2013-08-28 11:06:00,
2013-08-28 06:11:00,68.0,63.3,28.44,SSE,163,0.0,0.0,85,0.00,,---,0.00,VWS V14.01,2013-08-28 11:11:00,
2013-08-28 06:17:00,68.0,63.3,28.44,SSE,163,0.0,0.0,85,0.00,,---,0.00,VWS V14.01,2013-08-28 11:17:00,
2013-08-28 06:22:00,68.0,63.3,28.44,SSE,163,0.0,0.0,85,0.00,,---,0.00,VWS V14.01,2013-08-28 11:22:00,
2013-08-28 06:27:00,67.8,63.5,28.44,SSE,163,0.0,0.0,86,0.00,,---,0.00,VWS V14.01,2013-08-28 11:27:00,
2013-08-28 06:32:00,67.8,63.5,28.44,SSE,163,0.0,0.0,86,0.00,,---,0.00,VWS V14.01,2013-08-28 11:32:00,
2013-08-28 06:37:00,67.8,63.5,28.44,SSE,163,0.0,0.0,86,0.00,,---,0.00,VWS V14.01,2013-08-28 11:37:00,
2013-08-28 06:42:00,67.8,63.5,28.44,SSE,163,0.0,0.0,86,0.00,,---,0.00,VWS V14.01,2013-08-28 11:42:00,
2013-08-28 06:47:00,67.6,63.6,28.44,SSE,163,0.0,0.0,87,0.00,,---,0.00,VWS V14.01,2013-08-28 11:47:00,
2013-08-28 06:52:00,67.6,63.6,28.44,SSE,163,0.0,0.0,87,0.00,,---,0.00,VWS V14.01,2013-08-28 11:52:00,
2013-08-28 06:57:00,67.6,63.6,28.44,SSE,163,0.0,0.0,87,0.00,,---,0.00,VWS V14.01,2013-08-28 11:57:00,
2013-08-28 07:02:00,67.6,63.6,28.44,SSE,163,0.0,0.0,87,0.00,,---,0.00,VWS V14.01,2013-08-28 12:02:00,
2013-08-28 07:08:00,67.6,63.6,28.44,SSE,163,0.0,0.0,87,0.00,,---,0.00,VWS V14.01,2013-08-28 12:08:00,
2013-08-28 07:13:00,67.6,64.0,28.44,SSE,163,0.0,0.0,88,0.00,,---,0.00,VWS V14.01,2013-08-28 12:13:00,
2013-08-28 07:18:00,67.6,64.0,28.44,SSE,163,0.0,0.0,88,0.00,,---,0.00,VWS V14.01,2013-08-28 12:18:00,
2013-08-28 07:23:00,67.8,64.1,28.44,SSE,163,0.0,0.0,88,0.00,,---,0.00,VWS V14.01,2013-08-28 12:23:00,
2013-08-28 07:28:00,67.8,64.1,28.44,SSE,163,0.0,0.0,88,0.00,,---,0.00,VWS V14.01,2013-08-28 12:28:00,
2013-08-28 07:33:00,68.0,64.3,28.44,SSE,163,0.0,0.0,88,0.00,,---,0.00,VWS V14.01,2013-08-28 12:33:00,
2013-08-28 07:38:00,68.2,64.5,28.47,SSE,163,0.0,0.0,88,0.00,,---,0.00,VWS V14.01,2013-08-28 12:38:00,
2013-08-28 07:43:00,68.4,65.0,28.47,SSE,163,0.0,0.0,89,0.00,,---,0.00,VWS V14.01,2013-08-28 12:43:00,
2013-08-28 07:48:00,68.7,65.3,28.47,SSE,163,0.0,0.0,89,0.00,,---,0.00,VWS V14.01,2013-08-28 12:48:00,
2013-08-28 07:53:00,68.9,65.5,28.47,SSE,163,0.0,0.0,89,0.00,,---,0.00,VWS V14.01,2013-08-28 12:53:00,
2013-08-28 07:58:00,69.3,65.9,28.47,SSE,158,0.0,0.0,89,0.00,,---,0.00,VWS V14.01,2013-08-28 12:58:00,
2013-08-28 08:04:00,69.4,66.4,28.47,SSW,193,0.0,3.6,90,0.00,,---,0.00,VWS V14.01,2013-08-28 13:04:00,
2013-08-28 08:09:00,69.8,66.4,28.47,SSE,153,0.0,4.0,89,0.00,,---,0.00,VWS V14.01,2013-08-28 13:09:00,
2013-08-28 08:14:00,70.0,66.9,28.47,SSE,168,0.0,4.0,90,0.00,,---,0.00,VWS V14.01,2013-08-28 13:14:00,
2013-08-28 08:19:00,70.3,67.3,28.47,SSE,156,0.0,4.0,90,0.00,,---,0.00,VWS V14.01,2013-08-28 13:19:00,
2013-08-28 08:24:00,70.7,67.6,28.47,SSE,160,0.0,4.0,90,0.00,,---,0.00,VWS V14.01,2013-08-28 13:24:00,
2013-08-28 08:29:00,71.2,68.2,28.47,SSE,159,0.0,4.0,90,0.00,,---,0.00,VWS V14.01,2013-08-28 13:29:00,
2013-08-28 08:34:00,72.0,68.9,28.47,SSE,159,0.0,4.0,90,0.00,,---,0.00,VWS V14.01,2013-08-28 13:34:00,
2013-08-28 08:39:00,72.9,69.8,28.47,SSE,160,0.0,4.0,90,0.00,,---,0.00,VWS V14.01,2013-08-28 13:39:00,
2013-08-28 08:44:00,73.9,70.5,28.47,SSE,160,0.0,4.0,89,0.00,,---,0.00,VWS V14.01,2013-08-28 13:44:00,
2013-08-28 08:49:00,74.8,71.4,28.47,South,179,4.0,4.0,89,0.00,,---,0.00,VWS V14.01,2013-08-28 13:49:00,
2013-08-28 08:55:00,75.6,71.4,28.47,SE,146,2.2,4.0,87,0.00,,---,0.00,VWS V14.01,2013-08-28 13:55:00,
2013-08-28 09:00:00,76.1,71.6,28.47,SE,146,0.0,4.0,86,0.00,,---,0.04,VWS V14.01,2013-08-28 14:00:00,
2013-08-28 09:05:00,76.8,72.0,28.47,SE,146,2.2,3.6,85,0.00,,---,0.00,VWS V14.01,2013-08-28 14:05:00,
2013-08-28 09:10:00,77.5,72.0,28.47,SE,146,2.2,3.6,83,0.00,,---,0.00,VWS V14.01,2013-08-28 14:10:00,
2013-08-28 09:15:00,78.3,72.3,28.47,SSE,153,4.0,5.4,82,0.00,,---,0.00,VWS V14.01,2013-08-28 14:15:00,
2013-08-28 09:20:00,78.4,71.0,28.47,SW,217,2.2,6.3,78,0.00,,---,0.00,VWS V14.01,2013-08-28 14:20:00,
2013-08-28 09:25:00,78.8,70.2,28.47,NE,52,2.7,6.3,75,0.00,,---,0.00,VWS V14.01,2013-08-28 14:25:00,
2013-08-28 09:30:00,79.2,70.2,28.47,NNE,12,0.0,6.3,74,0.00,,---,0.00,VWS V14.01,2013-08-28 14:30:00,
2013-08-28 09:35:00,79.9,70.1,28.47,South,176,0.0,6.3,72,0.00,,---,0.00,VWS V14.01,2013-08-28 14:35:00,
2013-08-28 09:40:00,80.8,70.5,28.47,South,172,0.0,6.3,71,0.00,,---,0.00,VWS V14.01,2013-08-28 14:40:00,
2013-08-28 09:46:00,81.7,70.5,28.47,South,171,0.0,6.3,69,0.00,,---,0.00,VWS V14.01,2013-08-28 14:46:00,
2013-08-28 09:51:00,82.4,69.9,28.47,SE,138,0.0,6.3,66,0.00,,---,0.00,VWS V14.01,2013-08-28 14:51:00,
2013-08-28 09:56:00,82.8,69.8,28.47,SW,224,0.0,6.3,65,0.00,,---,0.00,VWS V14.01,2013-08-28 14:56:00,
2013-08-28 10:01:00,83.5,69.6,28.47,WSW,242,3.6,3.6,63,0.00,,---,0.00,VWS V14.01,2013-08-28 15:01:00,
2013-08-28 10:06:00,84.0,69.1,28.47,SE,133,4.0,4.0,61,0.00,,---,0.00,VWS V14.01,2013-08-28 15:06:00,
2013-08-28 10:11:00,84.4,68.5,28.47,South,185,0.0,4.0,59,0.00,,---,0.00,VWS V14.01,2013-08-28 15:11:00,
2013-08-28 10:16:00,84.9,68.5,28.47,SSW,207,0.0,4.0,58,0.00,,---,0.00,VWS V14.01,2013-08-28 15:16:00,
2013-08-28 10:21:00,85.5,68.5,28.47,SE,137,0.0,4.0,57,0.00,,---,0.00,VWS V14.01,2013-08-28 15:21:00,
2013-08-28 10:26:00,85.6,67.1,28.47,SSE,163,2.2,4.0,54,0.00,,---,0.00,VWS V14.01,2013-08-28 15:26:00,
2013-08-28 10:31:00,85.5,65.8,28.47,SW,226,2.7,4.0,52,0.00,,---,0.00,VWS V14.01,2013-08-28 15:31:00,
2013-08-28 10:37:00,85.3,66.8,28.47,SSE,162,0.0,4.9,54,0.00,,---,0.00,VWS V14.01,2013-08-28 15:37:00,
2013-08-28 10:42:00,85.5,67.5,28.47,SSE,167,2.2,4.9,55,0.00,,---,0.00,VWS V14.01,2013-08-28 15:42:00,
2013-08-28 10:47:00,85.6,67.1,28.47,South,190,2.7,4.9,54,0.00,,---,0.00,VWS V14.01,2013-08-28 15:47:00,
2013-08-28 10:52:00,85.8,66.7,28.47,South,170,0.0,4.9,53,0.00,,---,0.00,VWS V14.01,2013-08-28 15:52:00,
2013-08-28 10:57:00,85.6,66.6,28.47,South,173,0.0,4.9,53,0.00,,---,0.00,VWS V14.01,2013-08-28 15:57:00,
2013-08-28 11:02:00,85.5,66.4,28.47,SSE,162,2.2,3.6,53,0.00,,---,0.00,VWS V14.01,2013-08-28 16:02:00,
2013-08-28 11:07:00,85.1,66.1,28.47,SSW,208,2.7,4.0,53,0.00,,---,0.00,VWS V14.01,2013-08-28 16:07:00,
2013-08-28 11:12:00,84.9,65.9,28.47,South,191,2.2,4.0,53,0.00,,---,0.00,VWS V14.01,2013-08-28 16:12:00,
2013-08-28 11:17:00,84.7,66.3,28.47,SSE,165,3.1,4.0,54,0.00,,---,0.00,VWS V14.01,2013-08-28 16:17:00,
2013-08-28 11:22:00,85.3,67.3,28.47,WNW,285,0.0,4.0,55,0.00,,---,0.00,VWS V14.01,2013-08-28 16:22:00,
2013-08-28 11:28:00,85.8,67.8,28.47,SSE,168,2.2,4.0,55,0.00,,---,0.00,VWS V14.01,2013-08-28 16:28:00,
2013-08-28 11:33:00,85.8,66.7,28.47,South,191,3.1,4.0,53,0.00,,---,0.00,VWS V14.01,2013-08-28 16:33:00,
2013-08-28 11:38:00,86.2,67.1,28.47,South,169,2.7,4.9,53,0.00,,---,0.00,VWS V14.01,2013-08-28 16:38:00,
2013-08-28 11:43:00,86.9,67.7,28.47,ESE,122,0.0,4.9,53,0.00,,---,0.00,VWS V14.01,2013-08-28 16:43:00,
2013-08-28 11:48:00,87.1,66.8,28.47,SE,133,3.6,4.9,51,0.00,,---,0.00,VWS V14.01,2013-08-28 16:48:00,
2013-08-28 11:53:00,87.6,67.8,28.47,SSE,160,3.1,4.9,52,0.00,,---,0.00,VWS V14.01,2013-08-28 16:53:00,
2013-08-28 11:58:00,88.5,68.1,28.47,WSW,244,4.0,4.9,51,0.00,,---,0.00,VWS V14.01,2013-08-28 16:58:00,
2013-08-28 12:03:00,89.4,67.8,28.47,NE,45,3.6,5.8,49,0.00,,---,0.00,VWS V14.01,2013-08-28 17:03:00,
2013-08-28 12:08:00,90.0,66.4,28.47,WSW,256,0.0,5.8,46,0.00,,---,0.00,VWS V14.01,2013-08-28 17:08:00,
2013-08-28 12:13:00,89.6,65.5,28.47,SSE,166,0.0,5.8,45,0.00,,---,0.00,VWS V14.01,2013-08-28 17:13:00,
2013-08-28 12:19:00,88.7,64.7,28.47,SW,218,2.7,5.8,45,0.00,,---,0.00,VWS V14.01,2013-08-28 17:19:00,
2013-08-28 12:24:00,87.8,63.8,28.47,SE,144,3.1,5.8,45,0.00,,---,0.00,VWS V14.01,2013-08-28 17:24:00,
2013-08-28 12:29:00,87.1,64.4,28.47,SSE,153,0.0,5.8,47,0.00,,---,0.00,VWS V14.01,2013-08-28 17:29:00,
2013-08-28 12:34:00,87.3,65.2,28.47,SSE,156,2.2,5.8,48,0.00,,---,0.00,VWS V14.01,2013-08-28 17:34:00,
2013-08-28 12:39:00,87.4,65.4,28.47,South,176,0.0,5.8,48,0.00,,---,0.00,VWS V14.01,2013-08-28 17:39:00,
2013-08-28 12:44:00,87.6,65.5,28.47,SE,145,3.1,5.8,48,0.00,,---,0.00,VWS V14.01,2013-08-28 17:44:00,
2013-08-28 12:49:00,88.5,66.3,28.47,SE,136,2.7,5.8,48,0.00,,---,0.00,VWS V14.01,2013-08-28 17:49:00,
2013-08-28 12:54:00,89.6,66.1,28.47,South,177,3.6,5.8,46,0.00,,---,0.00,VWS V14.01,2013-08-28 17:54:00,
2013-08-28 12:59:00,90.0,65.1,28.47,South,182,0.0,5.8,44,0.00,,---,0.00,VWS V14.01,2013-08-28 17:59:00,
2013-08-28 13:04:00,90.0,65.1,28.47,SE,131,3.6,4.9,44,0.00,,---,0.00,VWS V14.01,2013-08-28 18:04:00,
2013-08-28 13:10:00,90.1,64.7,28.47,SE,131,2.2,5.8,43,0.00,,---,0.00,VWS V14.01,2013-08-28 18:10:00,
2013-08-28 13:15:00,90.5,65.0,28.47,South,174,2.7,5.8,43,0.00,,---,0.00,VWS V14.01,2013-08-28 18:15:00,
2013-08-28 13:20:00,90.5,64.3,28.47,ESE,102,2.2,5.8,42,0.00,,---,0.00,VWS V14.01,2013-08-28 18:20:00,
2013-08-28 13:25:00,90.9,64.6,28.47,South,179,0.0,5.8,42,0.00,,---,0.00,VWS V14.01,2013-08-28 18:25:00,
2013-08-28 13:30:00,90.7,63.1,28.47,SSE,158,0.0,5.8,40,0.00,,---,0.00,VWS V14.01,2013-08-28 18:30:00,
2013-08-28 13:35:00,90.1,62.6,28.47,SSE,150,2.7,5.8,40,0.00,,---,0.00,VWS V14.01,2013-08-28 18:35:00,
2013-08-28 13:40:00,90.5,63.6,28.47,SE,143,2.7,5.8,41,0.00,,---,0.00,VWS V14.01,2013-08-28 18:40:00,
2013-08-28 13:45:00,90.9,63.2,28.47,South,174,0.0,5.8,40,0.00,,---,0.00,VWS V14.01,2013-08-28 18:45:00,
2013-08-28 13:50:00,90.7,63.1,28.47,South,179,2.7,5.8,40,0.00,,---,0.00,VWS V14.01,2013-08-28 18:50:00,
2013-08-28 13:56:00,90.5,63.6,28.47,SE,125,3.6,5.8,41,0.00,,---,0.00,VWS V14.01,2013-08-28 18:56:00,
2013-08-28 14:01:00,90.9,63.9,28.47,North,353,3.6,3.6,41,0.00,,---,0.00,VWS V14.01,2013-08-28 19:01:00,
2013-08-28 14:06:00,90.9,62.5,28.47,South,181,2.7,5.4,39,0.00,,---,0.00,VWS V14.01,2013-08-28 19:06:00,
2013-08-28 14:11:00,90.7,63.1,28.47,ENE,69,0.0,5.4,40,0.00,,---,0.00,VWS V14.01,2013-08-28 19:11:00,
2013-08-28 14:16:00,90.5,62.9,28.47,SE,126,3.1,5.4,40,0.00,,---,0.00,VWS V14.01,2013-08-28 19:16:00,
2013-08-28 14:21:00,90.9,63.9,28.47,SE,125,0.0,5.4,41,0.00,,---,0.00,VWS V14.01,2013-08-28 19:21:00,
2013-08-28 14:26:00,91.6,63.9,28.44,SSE,165,0.0,5.8,40,0.00,,---,0.00,VWS V14.01,2013-08-28 19:26:00,
2013-08-28 14:31:00,91.8,62.6,28.44,SSE,150,0.0,5.8,38,0.00,,---,0.00,VWS V14.01,2013-08-28 19:31:00,
2013-08-28 14:36:00,91.4,62.2,28.44,ESE,108,0.0,5.8,38,0.00,,---,0.00,VWS V14.01,2013-08-28 19:36:00,
2013-08-28 14:41:00,90.7,61.6,28.44,WNW,288,4.0,5.8,38,0.00,,---,0.00,VWS V14.01,2013-08-28 19:41:00,
2013-08-28 14:46:00,89.8,61.5,28.44,WSW,238,4.0,9.2,39,0.00,,---,0.00,VWS V14.01,2013-08-28 19:46:00,
2013-08-28 14:52:00,89.6,62.8,28.44,ESE,103,2.7,9.2,41,0.00,,---,0.00,VWS V14.01,2013-08-28 19:52:00,
2013-08-28 14:57:00,90.1,63.3,28.44,WNW,294,3.6,9.2,41,0.00,,---,0.00,VWS V14.01,2013-08-28 19:57:00,
2013-08-28 15:02:00,90.7,63.8,28.44,SE,135,2.7,3.1,41,0.00,,---,0.00,VWS V14.01,2013-08-28 20:02:00,
2013-08-28 15:07:00,90.9,63.2,28.44,South,185,0.0,4.0,40,0.00,,---,0.00,VWS V14.01,2013-08-28 20:07:00,
2013-08-28 15:12:00,90.9,63.2,28.44,SE,146,0.0,4.0,40,0.00,,---,0.00,VWS V14.01,2013-08-28 20:12:00,
2013-08-28 15:17:00,90.7,63.1,28.44,ESE,114,4.0,4.0,40,0.00,,---,0.00,VWS V14.01,2013-08-28 20:17:00,
2013-08-28 15:22:00,90.5,62.9,28.44,SSE,167,3.1,4.0,40,0.00,,---,0.00,VWS V14.01,2013-08-28 20:22:00,
2013-08-28 15:27:00,90.5,63.6,28.44,SE,139,3.6,4.9,41,0.00,,---,0.00,VWS V14.01,2013-08-28 20:27:00,
2013-08-28 15:32:00,90.7,64.5,28.44,SE,125,2.2,5.4,42,0.00,,---,0.00,VWS V14.01,2013-08-28 20:32:00,
2013-08-28 15:37:00,91.2,64.2,28.44,South,181,2.7,5.8,41,0.00,,---,0.00,VWS V14.01,2013-08-28 20:37:00,
2013-08-28 15:43:00,91.8,64.7,28.44,South,175,3.6,5.8,41,0.00,,---,0.04,VWS V14.01,2013-08-28 20:43:00,
2013-08-28 15:48:00,92.3,65.9,28.44,ESE,119,2.7,5.8,42,0.00,,---,0.00,VWS V14.01,2013-08-28 20:48:00,
2013-08-28 15:53:00,92.3,64.5,28.44,SSE,165,3.1,5.8,40,0.00,,---,0.00,VWS V14.01,2013-08-28 20:53:00,
2013-08-28 15:58:00,92.3,63.8,28.44,East,92,0.0,5.8,39,0.00,,---,0.00,VWS V14.01,2013-08-28 20:58:00,
2013-08-28 16:03:00,91.8,63.3,28.44,South,180,3.6,4.0,39,0.00,,---,0.00,VWS V14.01,2013-08-28 21:03:00,
2013-08-28 16:08:00,91.2,63.5,28.44,South,169,0.0,5.4,40,0.00,,---,0.00,VWS V14.01,2013-08-28 21:08:00,
2013-08-28 16:13:00,90.5,62.9,28.44,WNW,302,2.2,5.4,40,0.00,,---,0.00,VWS V14.01,2013-08-28 21:13:00,
2013-08-28 16:18:00,89.8,63.0,28.44,SSE,148,3.1,5.4,41,0.00,,---,0.00,VWS V14.01,2013-08-28 21:18:00,
2013-08-28 16:23:00,90.1,64.0,28.41,South,187,0.0,5.4,42,0.00,,---,0.00,VWS V14.01,2013-08-28 21:23:00,
2013-08-28 16:28:00,90.9,63.2,28.41,SW,215,3.6,6.3,40,0.00,,---,0.00,VWS V14.01,2013-08-28 21:28:00,
2013-08-28 16:34:00,91.0,63.4,28.41,WSW,248,0.0,6.3,40,0.00,,---,0.00,VWS V14.01,2013-08-28 21:34:00,
2013-08-28 16:39:00,91.0,63.4,28.41,South,187,2.7,6.3,40,0.00,,---,0.00,VWS V14.01,2013-08-28 21:39:00,
2013-08-28 16:44:00,91.0,63.4,28.41,SSE,148,3.6,6.3,40,0.00,,---,0.00,VWS V14.01,2013-08-28 21:44:00,
2013-08-28 16:49:00,91.0,62.7,28.41,SE,125,2.7,6.3,39,0.00,,---,0.00,VWS V14.01,2013-08-28 21:49:00,
2013-08-28 16:54:00,91.0,62.7,28.41,SSE,150,2.7,6.3,39,0.00,,---,0.00,VWS V14.01,2013-08-28 21:54:00,
2013-08-28 16:59:00,91.0,61.9,28.41,SE,145,0.0,6.3,38,0.00,,---,0.00,VWS V14.01,2013-08-28 21:59:00,
2013-08-28 17:04:00,91.2,62.1,28.41,SSE,167,4.0,4.9,38,0.00,,---,0.00,VWS V14.01,2013-08-28 22:04:00,
2013-08-28 17:09:00,91.2,62.1,28.41,SE,139,2.7,4.9,38,0.00,,---,0.00,VWS V14.01,2013-08-28 22:09:00,
2013-08-28 17:14:00,91.2,62.8,28.41,SSE,152,4.0,4.9,39,0.00,,---,0.00,VWS V14.01,2013-08-28 22:14:00,
2013-08-28 17:19:00,91.2,62.1,28.41,SE,128,4.0,4.9,38,0.00,,---,0.00,VWS V14.01,2013-08-28 22:19:00,
2013-08-28 17:25:00,91.2,61.3,28.41,WSW,245,4.0,4.9,37,0.00,,---,0.00,VWS V14.01,2013-08-28 22:25:00,
2013-08-28 17:30:00,91.2,62.1,28.41,West,259,2.2,6.3,38,0.00,,---,0.00,VWS V14.01,2013-08-28 22:30:00,
2013-08-28 17:35:00,91.2,62.1,28.41,SSW,203,0.0,6.3,38,0.00,,---,0.00,VWS V14.01,2013-08-28 22:35:00,
2013-08-28 17:40:00,91.4,62.2,28.41,West,260,3.1,6.3,38,0.00,,---,0.00,VWS V14.01,2013-08-28 22:40:00,
2013-08-28 17:45:00,91.4,62.2,28.41,SSE,163,0.0,6.3,38,0.00,,---,0.00,VWS V14.01,2013-08-28 22:45:00,
2013-08-28 17:50:00,91.4,62.2,28.41,ESE,121,2.7,6.3,38,0.00,,---,0.00,VWS V14.01,2013-08-28 22:50:00,
2013-08-28 17:55:00,91.2,62.1,28.41,South,172,0.0,6.3,38,0.00,,---,0.00,VWS V14.01,2013-08-28 22:55:00,
2013-08-28 18:00:00,91.0,61.9,28.41,WSW,249,2.7,3.6,38,0.00,,---,0.00,VWS V14.01,2013-08-28 23:00:00,
2013-08-28 18:05:00,90.7,61.6,28.41,SSE,155,3.6,4.0,38,0.00,,---,0.00,VWS V14.01,2013-08-28 23:05:00,
2013-08-28 18:10:00,90.5,61.5,28.41,SSE,168,0.0,4.0,38,0.00,,---,0.00,VWS V14.01,2013-08-28 23:10:00,
2013-08-28 18:16:00,90.5,62.2,28.41,West,266,2.2,4.0,39,0.00,,---,0.00,VWS V14.01,2013-08-28 23:16:00,
2013-08-28 18:21:00,90.3,61.3,28.41,South,188,3.6,4.0,38,0.00,,---,0.00,VWS V14.01,2013-08-28 23:21:00,
2013-08-28 18:26:00,90.3,61.3,28.41,South,184,3.1,4.0,38,0.00,,---,0.00,VWS V14.01,2013-08-28 23:26:00,
2013-08-28 18:31:00,90.5,61.5,28.41,SE,137,0.0,4.0,38,0.00,,---,0.00,VWS V14.01,2013-08-28 23:31:00,
2013-08-28 18:36:00,90.5,61.5,28.41,SSW,198,2.2,5.8,38,0.00,,---,0.00,VWS V14.01,2013-08-28 23:36:00,
2013-08-28 18:41:00,90.7,61.6,28.41,WNW,287,0.0,5.8,38,0.00,,---,0.00,VWS V14.01,2013-08-28 23:41:00,
2013-08-28 18:46:00,90.7,60.9,28.41,SSW,199,2.7,5.8,37,0.00,,---,0.00,VWS V14.01,2013-08-28 23:46:00,
2013-08-28 18:51:00,90.5,61.5,28.41,SSW,199,0.0,5.8,38,0.00,,---,0.00,VWS V14.01,2013-08-28 23:51:00,
2013-08-28 18:56:00,90.5,61.5,28.41,South,169,0.0,5.8,38,0.00,,---,0.00,VWS V14.01,2013-08-28 23:56:00,
2013-08-28 19:01:00,90.3,61.3,28.41,SSE,152,2.7,4.0,38,0.00,,---,0.00,VWS V14.01,2013-08-29 00:01:00,
2013-08-28 19:07:00,90.1,62.6,28.41,South,186,3.6,6.3,40,0.00,,---,0.00,VWS V14.01,2013-08-29 00:07:00,
2013-08-28 19:12:00,90.0,63.1,28.41,SSE,164,4.0,6.3,41,0.00,,---,0.00,VWS V14.01,2013-08-29 00:12:00,
2013-08-28 19:17:00,89.8,63.0,28.41,SE,133,5.8,6.3,41,0.00,,---,0.00,VWS V14.01,2013-08-29 00:17:00,
2013-08-28 19:22:00,89.6,63.5,28.41,South,185,3.1,6.3,42,0.00,,---,0.00,VWS V14.01,2013-08-29 00:22:00,
2013-08-28 19:27:00,89.4,64.0,28.41,SE,139,4.0,6.3,43,0.00,,---,0.00,VWS V14.01,2013-08-29 00:27:00,
2013-08-28 19:32:00,89.1,63.7,28.41,SSE,157,3.1,6.3,43,0.00,,---,0.00,VWS V14.01,2013-08-29 00:32:00,
2013-08-28 19:37:00,88.7,64.0,28.41,ESE,118,0.0,6.3,44,0.00,,---,0.00,VWS V14.01,2013-08-29 00:37:00,
2013-08-28 19:42:00,88.2,63.5,28.41,South,173,0.0,6.3,44,0.00,,---,0.00,VWS V14.01,2013-08-29 00:42:00,
2013-08-28 19:47:00,87.8,63.8,28.41,SE,129,2.2,6.3,45,0.00,,---,0.00,VWS V14.01,2013-08-29 00:47:00,
2013-08-28 19:52:00,87.6,64.3,28.41,SE,130,0.0,6.3,46,0.00,,---,0.00,VWS V14.01,2013-08-29 00:52:00,
2013-08-28 19:57:00,87.1,64.4,28.41,SE,139,0.0,6.3,47,0.00,,---,0.00,VWS V14.01,2013-08-29 00:57:00,
2013-08-28 20:03:00,86.9,64.3,28.41,SE,141,0.0,0.0,47,0.00,,---,0.00,VWS V14.01,2013-08-29 01:03:00,
2013-08-28 20:08:00,86.4,64.4,28.41,SSE,151,0.0,3.6,48,0.00,,---,0.00,VWS V14.01,2013-08-29 01:08:00,
2013-08-28 20:13:00,86.0,64.6,28.41,SSE,151,0.0,3.6,49,0.00,,---,0.00,VWS V14.01,2013-08-29 01:13:00,
2013-08-28 20:18:00,85.5,64.7,28.41,SSE,151,0.0,3.6,50,0.00,,---,0.00,VWS V14.01,2013-08-29 01:18:00,
2013-08-28 20:23:00,85.1,64.4,28.41,SSE,151,0.0,3.6,50,0.00,,---,0.00,VWS V14.01,2013-08-29 01:23:00,
2013-08-28 20:28:00,84.6,64.5,28.41,SSE,151,0.0,3.6,51,0.00,,---,0.00,VWS V14.01,2013-08-29 01:28:00,
2013-08-28 20:33:00,84.2,65.2,28.41,SSE,151,0.0,3.6,53,0.00,,---,0.00,VWS V14.01,2013-08-29 01:33:00,
2013-08-28 20:38:00,83.8,65.4,28.44,SSE,151,0.0,3.6,54,0.00,,---,0.00,VWS V14.01,2013-08-29 01:38:00,
2013-08-28 20:43:00,83.5,65.6,28.44,SSE,151,0.0,3.6,55,0.00,,---,0.00,VWS V14.01,2013-08-29 01:43:00,
2013-08-28 20:49:00,83.1,65.8,28.44,SSE,151,0.0,3.6,56,0.00,,---,0.00,VWS V14.01,2013-08-29 01:49:00,
2013-08-28 20:54:00,82.9,66.2,28.44,SSE,151,0.0,3.6,57,0.00,,---,0.00,VWS V14.01,2013-08-29 01:54:00,
2013-08-28 20:59:00,82.6,65.8,28.44,SSE,151,0.0,3.6,57,0.00,,---,0.00,VWS V14.01,2013-08-29 01:59:00,
2013-08-28 21:04:00,82.2,66.0,28.44,SSE,151,0.0,0.0,58,0.00,,---,0.00,VWS V14.01,2013-08-29 02:04:00,
2013-08-28 21:09:00,82.0,66.3,28.44,SSE,151,0.0,0.0,59,0.00,,---,0.00,VWS V14.01,2013-08-29 02:09:00,
2013-08-28 21:14:00,81.9,66.1,28.44,SSE,160,0.0,0.0,59,0.00,,---,0.00,VWS V14.01,2013-08-29 02:14:00,
2013-08-28 21:19:00,81.5,65.8,28.44,SSE,164,0.0,3.6,59,0.00,,---,0.00,VWS V14.01,2013-08-29 02:19:00,
2013-08-28 21:24:00,81.3,65.6,28.44,SSE,164,0.0,3.6,59,0.00,,---,0.00,VWS V14.01,2013-08-29 02:24:00,
2013-08-28 21:29:00,81.1,65.9,28.44,SSE,164,0.0,3.6,60,0.00,,---,0.00,VWS V14.01,2013-08-29 02:29:00,
2013-08-28 21:35:00,81.0,65.8,28.44,SSE,164,0.0,3.6,60,0.00,,---,0.00,VWS V14.01,2013-08-29 02:35:00,
2013-08-28 21:40:00,80.6,65.4,28.44,SSE,164,0.0,3.6,60,0.00,,---,0.00,VWS V14.01,2013-08-29 02:40:00,
2013-08-28 21:45:00,80.4,65.8,28.44,SSE,164,0.0,3.6,61,0.00,,---,0.00,VWS V14.01,2013-08-29 02:45:00,
2013-08-28 21:50:00,80.2,66.1,28.44,SSE,164,0.0,3.6,62,0.00,,---,0.00,VWS V14.01,2013-08-29 02:50:00,
2013-08-28 21:55:00,80.2,66.1,28.44,SSE,164,0.0,3.6,62,0.00,,---,0.00,VWS V14.01,2013-08-29 02:55:00,
2013-08-28 22:00:00,80.1,65.9,28.44,SSE,164,0.0,0.0,62,0.00,,---,0.00,VWS V14.01,2013-08-29 03:00:00,
2013-08-28 22:05:00,79.9,66.2,28.44,SSE,164,0.0,0.0,63,0.00,,---,0.00,VWS V14.01,2013-08-29 03:05:00,
2013-08-28 22:10:00,79.7,66.0,28.44,SSE,164,0.0,0.0,63,0.00,,---,0.00,VWS V14.01,2013-08-29 03:10:00,
2013-08-28 22:15:00,79.5,65.8,28.44,SSE,164,0.0,0.0,63,0.00,,---,0.00,VWS V14.01,2013-08-29 03:15:00,
2013-08-28 22:20:00,79.3,66.1,28.44,SSE,164,0.0,0.0,64,0.00,,---,0.00,VWS V14.01,2013-08-29 03:20:00,
2013-08-28 22:26:00,79.2,65.9,28.44,SSE,164,0.0,0.0,64,0.00,,---,0.00,VWS V14.01,2013-08-29 03:26:00,
2013-08-28 22:31:00,79.0,65.8,28.44,SSE,164,0.0,0.0,64,0.00,,---,0.00,VWS V14.01,2013-08-29 03:31:00,
2013-08-28 22:36:00,79.0,66.2,28.44,SSE,164,0.0,0.0,65,0.00,,---,0.00,VWS V14.01,2013-08-29 03:36:00,
2013-08-28 22:41:00,78.8,66.5,28.44,SSE,164,0.0,0.0,66,0.00,,---,0.00,VWS V14.01,2013-08-29 03:41:00,
2013-08-28 22:46:00,78.8,66.5,28.44,SSE,164,0.0,0.0,66,0.00,,---,0.00,VWS V14.01,2013-08-29 03:46:00,
2013-08-28 22:51:00,78.8,66.5,28.44,SSE,164,0.0,0.0,66,0.00,,---,0.00,VWS V14.01,2013-08-29 03:51:00,
2013-08-28 22:56:00,78.8,66.9,28.44,SSE,156,0.0,0.0,67,0.00,,---,0.00,VWS V14.01,2013-08-29 03:56:00,
2013-08-28 23:01:00,78.8,66.9,28.44,SSE,158,0.0,2.2,67,0.00,,---,0.00,VWS V14.01,2013-08-29 04:01:00,
2013-08-28 23:02:00,78.8,66.9,28.44,SSE,158,0.0,2.2,67,0.00,,---,0.00,VWS V14.01,2013-08-29 04:02:00,
2013-08-28 23:04:00,78.8,66.9,28.44,SSE,158,3.1,3.6,67,0.00,,---,0.00,VWS V14.01,2013-08-29 04:04:00,
2013-08-28 23:09:00,78.8,66.9,28.44,SSE,158,0.0,3.6,67,0.00,,---,0.00,VWS V14.01,2013-08-29 04:09:00,
2013-08-28 23:14:00,78.8,66.9,28.44,SSE,158,0.0,4.0,67,0.00,,---,0.00,VWS V14.01,2013-08-29 04:14:00,
2013-08-28 23:20:00,78.8,66.9,28.44,SSE,158,0.0,4.0,67,0.00,,---,0.00,VWS V14.01,2013-08-29 04:20:00,
2013-08-28 23:25:00,78.8,66.9,28.44,SSE,158,0.0,4.0,67,0.00,,---,0.00,VWS V14.01,2013-08-29 04:25:00,
2013-08-28 23:30:00,78.6,67.2,28.44,SSE,158,0.0,4.0,68,0.00,,---,0.00,VWS V14.01,2013-08-29 04:30:00,
2013-08-28 23:35:00,78.6,67.2,28.44,SSE,158,0.0,4.0,68,0.00,,---,0.00,VWS V14.01,2013-08-29 04:35:00,
2013-08-28 23:40:00,78.4,67.0,28.44,SSE,159,2.2,4.0,68,0.00,,---,0.00,VWS V14.01,2013-08-29 04:40:00,
2013-08-28 23:45:00,78.4,67.0,28.44,SSE,159,0.0,4.0,68,0.00,,---,0.00,VWS V14.01,2013-08-29 04:45:00,
2013-08-28 23:50:00,78.3,66.8,28.44,SSE,159,2.2,4.0,68,0.00,,---,0.00,VWS V14.01,2013-08-29 04:50:00,
2013-08-28 23:55:00,78.1,67.1,28.44,SSE,159,2.7,4.0,69,0.00,,---,0.00,VWS V14.01,2013-08-29 04:55:00,